Location: Earls Croome
(52.0667°N, 2.2000°W)
Time: 23:52:50
(UTC+00:00)

Cosmos 2061 Rocket - Pass Details

Date: 17 November 2019
Orbit: 965 x 1013 km, 82.9° (Epoch: 09 December)

Event Time Altitude Azimuth Distance (km) Brightness Sun altitude
Rises 05:10:52 0° 176° (S) 3,674 7.1 -21.3°
Reaches altitude 10° 05:13:24 10° 173° (S) 2,724 6.5 -20.9°
Maximum altitude 05:19:32 62° 94° (E) 1,085 4.5 -20.0°
Drops below altitude 10° 05:25:39 10° 15° (NNE) 2,720 6.4 -19.1°
Sets 05:28:11 0° 13° (NNE) 3,670 7.1 -18.7°
